Starlink 2381

operational
NORAD ID: 47800 Int'l Des: 2021-018 Owner: SPXS Country: US Constellation: starlink
LEOCIRCULARSTARLINK_TYPE

Über Starlink 2381

Beschreibung wird geladen...

Live-Position

3D-Globus wird geladen...

Nächste Überflüge

Höhenverlauf

Altitude vs Time

uPlot chart will show altitude changes over time

Zweizeiliger Elementsatz

1 47800U 21018P 25302.85182274 -.00000484 00000-0 -13589-4 0 9998
2 47800 53.0536 98.9720 0001969 94.4195 265.7019 15.06386635257158
Epoch: 29. Okt. 2025 • Age: 20 hours

Aktueller Status

Höhe 563.9 km
Geschwindigkeit 7.58 km/s
Subsatellitenpunkt -45.63°S, 36.42°E
Startdatum 11. März 2021
Alter 4.6 years
Typ internet

Technische Details

Klassifizierung Payload
Masse 260.00 kg
Trockenmasse 248.00 kg
Gesamtmasse 260.00 kg
Länge 0.20 m
Durchmesser 2.80 m
Spannweite 9.00 m
Form Box + pan
Hersteller SPXS
Bus-Typ Starlink
Phasenstatus In Orbit
Besitzer/Staat SPXS/US

Große Konstellationen

Loading constellations...